Location: Dodge City Community College Clyde Tombaugh Astronomy Center
(37.7756°N, 100.0412°W)
Time: 21:54:45
(UTC+00:00)

N. Korean satellite - Pass Details

Date: 05 December 2022
Orbit: 407 x 442 km, 97.3° (Epoch: 04 February)

Event Time Altitude Azimuth Distance (km) Brightness Sun altitude
Rises 12:11:15 0° 6° (N) 2,506 10.1 -17.2°
Reaches altitude 10° 12:13:21 10° 2° (N) 1,619 9.1 -16.8°
Maximum altitude 12:16:44 53° 285° (WNW) 572 6.5 -16.2°
Drops below altitude 10° 12:20:03 10° 207° (SSW) 1,578 9.0 -15.5°
Sets 12:22:04 0° 203° (SSW) 2,435 10.1 -15.1°
